Weather observations for the past three days for
Copper Harbor
| Date | Time (edt) | Wind (mph) | Vis. (mi.) | Weather | Sky Cond. | Temperature (ºF) | Relative Humidity | Wind Chill (°F) | Heat Index (°F) | Pressure | Precipitation (in) | ||||||
|---|---|---|---|---|---|---|---|---|---|---|---|---|---|---|---|---|---|
| Air | Dwpt | 6 hour | altimeter (in) | sea level (mb) | 1 hr | 3 hr | 6 hr | ||||||||||
| Max. | Min. | ||||||||||||||||
| 08 | 06:51 | SW 8 | 0.00 | NULL | NULL | 33.1 | 28.9 | 85% | 27 | 29.72 | 1007.4 | ||||||
| 08 | 05:51 | Vrbl 6 | 0.00 | NULL | NULL | 33.1 | 28.9 | 85% | 28 | 29.74 | 1007.9 | ||||||
| 08 | 04:51 | W 5 | 0.00 | NULL | NULL | 32 | 28.9 | 88% | 28 | 29.74 | 1008.1 | ||||||
| 08 | 03:51 | W 6 | 0.00 | NULL | NULL | 30 | 28 | 92% | 25 | 29.76 | 1008.8 | ||||||
| 08 | 02:51 | W 7 | 0.00 | NULL | NULL | 30 | 28 | 92% | 24 | 29.77 | 1009.1 | ||||||
| 08 | 01:51 | SW 5 | 0.00 | NULL | NULL | 30.9 | 27 | 42.1 | 30.9 | 85% | 27 | 29.79 | 1009.6 | ||||
| 08 | 00:51 | SW 5 | 0.00 | NULL | NULL | 32 | 27 | 82% | 28 | 29.79 | 1009.8 | ||||||
| 07 | 23:51 | SW 5 | 0.00 | NULL | NULL | 33.1 | 25 | 72% | 29 | 29.8 | 1010.0 | ||||||
| 07 | 22:51 | Vrbl 3 | 0.00 | NULL | NULL | 36 | 25 | 64% | 29.81 | 1010.1 | |||||||
| 07 | 21:51 | SW 9 | 0.00 | NULL | NULL | 37 | 26.1 | 65% | 31 | 29.8 | 1010.1 | ||||||
| 07 | 20:51 | SW 5 | 0.00 | NULL | NULL | 37.9 | 28 | 68% | 35 | 29.8 | 1009.9 | ||||||
| 07 | 19:51 | S 5 | 0.00 | NULL | NULL | 42.1 | 28 | 42.1 | 37.9 | 58% | 40 | 29.78 | 1009.0 | ||||
| 07 | 18:51 | Calm | 0.00 | NULL | NULL | 39.9 | 30.9 | 70% | 29.78 | 1009.1 | |||||||
| 07 | 17:51 | N 7 | 0.00 | NULL | NULL | 39 | 30 | 70% | 35 | 29.78 | 1009.3 | ||||||
| 07 | 16:51 | N 10 | 0.00 | NULL | NULL | 39 | 28.9 | 67% | 33 | 29.78 | 1009.2 | ||||||
| 07 | 15:51 | N 13 | 0.00 | NULL | NULL | 39 | 30.9 | 73% | 32 | 29.79 | 1009.5 | ||||||
| 07 | 14:51 | N 13 | 0.00 | NULL | NULL | 39 | 28 | 65% | 32 | 29.8 | 1009.8 | ||||||
| 07 | 13:51 | N 16 | 0.00 | NULL | NULL | 39 | 25 | 41 | 37.9 | 57% | 31 | 29.8 | 1009.9 | ||||
| 07 | 12:51 | N 13 | 0.00 | NULL | NULL | 39 | 24.1 | 55% | 32 | 29.82 | 1010.6 | ||||||
| 07 | 11:51 | N 21 G 29 | 0.00 | Breezy | NULL | 39.9 | 27 | 60% | 31 | 29.82 | 1010.6 | ||||||
| 07 | 10:51 | N 18 G 26 | 0.00 | NULL | NULL | 39 | 28 | 65% | 30 | 29.81 | 1010.4 | ||||||
| 07 | 09:51 | N 14 G 23 | 0.00 | NULL | NULL | 39.9 | 27 | 60% | 33 | 29.82 | 1010.5 | ||||||
| 07 | 08:51 | Calm | 0.00 | NULL | NULL | 39 | 26.1 | 60% | 29.82 | 1010.7 | |||||||
| 07 | 07:51 | Calm | 0.00 | NULL | NULL | 37.9 | 26.1 | 37.9 | 36 | 62% | 29.83 | 1010.7 | |||||
| 07 | 06:51 | W 3 | 0.00 | NULL | NULL | 36 | 27 | 70% | 29.82 | 1010.5 | |||||||
| 07 | 05:51 | Calm | 0.00 | NULL | NULL | 36 | 28 | 73% | 29.82 | 1010.6 | |||||||
| 07 | 04:51 | Calm | 0.00 | NULL | NULL | 37 | 28 | 70% | 29.83 | 1010.9 | |||||||
| 07 | 03:51 | Calm | 0.00 | NULL | NULL | 37 | 28 | 70% | 29.84 | 1011.2 | |||||||
| 07 | 02:51 | NW 5 | 0.00 | NULL | NULL | 37 | 28 | 70% | 34 | 29.85 | 1011.6 | ||||||
| 07 | 01:51 | Vrbl 5 | 0.00 | NULL | NULL | 37.9 | 28 | 39 | 37.9 | 68% | 35 | 29.86 | 1012.0 | ||||
| 07 | 00:51 | NW 7 | 0.00 | NULL | NULL | 37.9 | 28 | 68% | 33 | 29.87 | 1012.2 | ||||||
| 06 | 23:51 | NW 7 G 18 | 0.00 | NULL | NULL | 37.9 | 27 | 65% | 33 | 29.87 | 1012.4 | ||||||
| 06 | 22:51 | NW 3 | 0.00 | NULL | NULL | 37.9 | 25 | 60% | 29.87 | 1012.4 | |||||||
| 06 | 21:51 | NW 8 | 0.00 | NULL | NULL | 39 | 24.1 | 55% | 34 | 29.88 | 1012.5 | ||||||
| 06 | 20:51 | NW 8 G 18 | 0.00 | NULL | NULL | 39 | 24.1 | 55% | 34 | 29.88 | 1012.5 | ||||||
| 06 | 19:51 | NW 7 | 0.00 | NULL | NULL | 39 | 24.1 | 39.9 | 37 | 55% | 35 | 29.87 | 1012.5 | ||||
| 06 | 18:51 | NW 10 G 22 | 0.00 | NULL | NULL | 39 | 25 | 57% | 33 | 29.88 | 1012.8 | ||||||
| 06 | 17:51 | N 14 G 24 | 0.00 | NULL | NULL | 39.9 | 26.1 | 58% | 33 | 29.88 | 1012.5 | ||||||
| 06 | 16:51 | N 14 G 26 | 0.00 | NULL | NULL | 39 | 27 | 62% | 32 | 29.87 | 1012.5 | ||||||
| 06 | 15:51 | N 20 G 25 | 0.00 | NULL | NULL | 39 | 26.1 | 60% | 30 | 29.88 | 1012.6 | ||||||
| 06 | 14:51 | N 17 G 28 | 0.00 | NULL | NULL | 37 | 28 | 70% | 28 | 29.88 | 1012.7 | ||||||
| 06 | 13:51 | N 18 G 26 | 0.00 | NULL | NULL | 37.9 | 28.9 | 37.9 | 35.1 | 70% | 29 | 29.88 | 1012.6 | ||||
| 06 | 12:51 | N 17 G 28 | 0.00 | NULL | NULL | 37.9 | 26.1 | 62% | 29 | 29.88 | 1012.7 | ||||||
| 06 | 11:51 | N 15 | 0.00 | NULL | NULL | 37 | 28.9 | 73% | 29 | 29.88 | 1012.7 | ||||||
| 06 | 10:51 | N 12 G 18 | 0.00 | NULL | NULL | 37 | 28 | 70% | 30 | 29.87 | 1012.4 | ||||||
| 06 | 09:51 | N 9 G 16 | 0.00 | NULL | NULL | 36 | 28 | 73% | 30 | 29.86 | 1012.1 | ||||||
| 06 | 08:51 | NW 9 G 17 | 0.00 | NULL | NULL | 36 | 28 | 73% | 30 | 29.85 | 1011.7 | ||||||
| 06 | 07:51 | NW 8 | 0.00 | NULL | NULL | 35.1 | 27 | 36 | 35.1 | 72% | 29 | 29.84 | 1011.4 | ||||
| 06 | 06:51 | NW 9 | 0.00 | NULL | NULL | 35.1 | 27 | 72% | 29 | 29.82 | 1010.6 | ||||||
| 06 | 05:51 | N 7 | 0.00 | NULL | NULL | 35.1 | 27 | 72% | 30 | 29.82 | 1010.6 | ||||||
| 06 | 04:51 | Vrbl 7 | 0.00 | NULL | NULL | 35.1 | 25 | 67% | 30 | 29.81 | 1010.4 | ||||||
| 06 | 03:51 | N 8 | 0.00 | NULL | NULL | 36 | 23 | 59% | 30 | 29.81 | 1010.2 | ||||||
| 06 | 02:51 | NW 7 | 0.00 | NULL | NULL | 36 | 25 | 64% | 31 | 29.81 | 1010.2 | ||||||
| 06 | 01:51 | NW 7 | 0.00 | NULL | NULL | 36 | 26.1 | 37 | 36 | 67% | 31 | 29.81 | 1010.3 | ||||
| 06 | 00:51 | N 9 | 0.00 | NULL | NULL | 36 | 28 | 73% | 30 | 29.81 | 1010.3 | ||||||
| 05 | 23:51 | N 13 G 26 | 0.00 | NULL | NULL | 37 | 24.1 | 59% | 30 | 29.8 | 1010.1 | ||||||
| 05 | 22:51 | Vrbl 6 | 0.00 | NULL | NULL | 37 | 21.9 | 54% | 33 | 29.8 | 1010.0 | ||||||
| 05 | 21:51 | NW 7 | 0.00 | NULL | NULL | 37 | 21.9 | 54% | 32 | 29.79 | 1009.7 | ||||||
| 05 | 20:51 | NW 8 | 0.00 | NULL | NULL | 36 | 21 | 55% | 30 | 29.78 | 1009.3 | ||||||
| 05 | 19:51 | NW 12 G 22 | 0.00 | NULL | NULL | 37 | 21 | 39 | 36 | 52% | 30 | 29.77 | 1009.0 | ||||
| 05 | 18:51 | NW 13 G 26 | 0.00 | NULL | NULL | 37 | 21.9 | 54% | 30 | 29.77 | 1008.9 | ||||||
| 05 | 17:51 | NW 14 G 29 | 0.00 | NULL | NULL | 37 | 24.1 | 59% | 29 | 29.76 | 1008.7 | ||||||
| 05 | 16:51 | N 15 G 35 | 0.00 | NULL | NULL | 36 | 23 | 59% | 27 | 29.75 | 1008.4 | ||||||
| 05 | 15:51 | N 18 G 33 | 0.00 | NULL | NULL | 37.9 | 27 | 65% | 29 | 29.73 | 1007.7 | ||||||
| 05 | 14:51 | NW 15 G 26 | 0.00 | NULL | NULL | 36 | 26.1 | 67% | 27 | 29.73 | 1007.5 | ||||||
| 05 | 13:51 | N 21 G 31 | 0.00 | Breezy | NULL | 37 | 27 | 37.9 | 35.1 | 67% | 27 | 29.7 | 1006.8 | ||||
| 05 | 12:51 | N 20 G 29 | 0.00 | NULL | NULL | 37.9 | 25 | 60% | 29 | 29.69 | 1006.1 | ||||||
| 05 | 11:51 | N 18 G 24 | 0.00 | NULL | NULL | 37 | 28.9 | 73% | 28 | 29.67 | 1005.5 | ||||||
| 05 | 10:51 | NW 7 G 22 | 0.00 | NULL | NULL | 37 | 26.1 | 65% | 32 | 29.65 | 1004.8 | ||||||
| 05 | 09:51 | N 12 | 0.00 | NULL | NULL | 36 | 28 | 73% | 29 | 29.64 | 1004.2 | ||||||
| 05 | 08:51 | N 13 | 0.00 | NULL | NULL | 36 | 27 | 70% | 28 | 29.62 | 1003.6 | ||||||
| 05 | 07:51 | N 14 | 0.00 | NULL | NULL | 36 | 28 | 37 | 35.1 | 73% | 28 | 29.6 | 1002.9 | ||||
| Date | Time (edt) | Wind (mph) | Vis. (mi.) | Weather | Sky Cond. | Air | Dwpt | Max. | Min. | Relative Humidity | Wind Chill (°F) | Heat Index (°F) | altimeter (in) | sea level (mb) | 1 hr | 3 hr | 6 hr |
| 6 hour | |||||||||||||||||
| Temperature (ºF) | Pressure | Precipitation (in) | |||||||||||||||